Regional Weather Roundup
Issued by NWS

Home | Current Version | Previous Version | Text Only | Print | Product List | Glossary On
Versions: 1 2 3 4 5 6 7 8 9 10 11 12 13 14 15 16 17 18 19 20 21 22 23 24 25 26 27 28 29 30 31 32 33 34 35 36 37 38 39 40 41 42 43 44 45 46 47 48 49 50
000
ASUS44 KMEG 281910
RWRTN
TENNESSEE HOURLY STATE WEATHER ROUNDUP
NATIONAL WEATHER SERVICE MEMPHIS TN
200 PM CDT TUE JUL 28 2015

TNZ002-004-019-021-049-052-054-088>092-282000-
WEST TENNESSEE

CITY           SKY/WX    TMP DP  RH WIND       PRES   REMARKS
MEMPHIS INTL   MOSUNNY   96  74  48 NW5       30.00F HX 107
NWS MEMPHIS      N/A     94 N/A N/A MISG        N/A
JACKSON        SUNNY     96  76  52 W9G16     29.99F HX 109
DYERSBURG        N/A    N/A N/A N/A MISG        N/A
PARIS          MOSUNNY   91  77  62 W3        30.00F HX 105
LEXINGTON      MOSUNNY   93  75  55 W6        29.99F HX 104
$$

TNZ008-025-027-028-033-062-065-066-282000-
NORTH MIDDLE TENNESSEE

CITY           SKY/WX    TMP DP  RH WIND       PRES   REMARKS
NASHVILLE      MOSUNNY   94  73  50 NW9       29.99F HX 103
CLARKSVILLE    MOSUNNY   93  74  53 W8G17     29.98F HX 103
SMYRNA         MOSUNNY   85  74  69 SE3       30.00F HX  92
CROSSVILLE     MOSUNNY   89  71  55 NW9       30.06F HX  95
$$

TNZ061-075-076-078-094-096-097-282000-
SOUTH MIDDLE TENNESSEE

CITY           SKY/WX    TMP DP  RH WIND       PRES   REMARKS
FAYETTEVILLE     N/A     91  70  49 NW8       30.01F HX  97
TULLAHOMA      MOSUNNY   93  70  46 W7        30.03F HX  99
WINCHESTER     MOSUNNY   90  73  58 NW7       30.02F HX  98
MCMINNVILLE    SUNNY     84  73  70 NW6       30.03S HX  91
SHELBYVILLE    PTSUNNY   93  75  55 W5        30.01S HX 104
$$

TNZ017-018-042-046-047-282000-
NORTHEAST TENNESSEE

CITY           SKY/WX    TMP DP  RH WIND       PRES   REMARKS
TRI CITIES     MOSUNNY   90  69  50 CALM      30.02F HX  94
ELIZABETHTON   CLEAR     88  68  51 W8        30.02F HX  91
$$

TNZ012-013-036-069-073-074-282000-
CENTRAL EAST TENNESSEE

CITY           SKY/WX    TMP DP  RH WIND       PRES   REMARKS
KNOXVILLE      PTSUNNY   90  72  55 W7        29.98F HX  97
OAK RIDGE      LGT RAIN  88  75  65 VRB3      30.01F HX  97
GATLINBURG       N/A     91  72  52 VRB5      29.98F HX  98
MORRISTOWN     CLEAR     88  73  62 CALM      30.01F HX  96
$$

TNZ083-085-099-282000-
SOUTHEAST TENNESSEE

CITY           SKY/WX    TMP DP  RH WIND       PRES   REMARKS
CHATTANOOGA    PTSUNNY   92  74  55 SE6       29.98F HX 101
$$

SKY/WX REPORTED AS FAIR MEANS FEW OR NO CLOUDS BELOW
12 THOUSAND FEET.



USA.gov is the U.S. government's official web portal to all federal, state and local government web resources and services.